"Sample Date","Sample Time","Sample Value","Units","Flow Rate","Sample Interval","Number Channels","Micron Size 0","Counts/Channel 0","Micron Size 1","Counts/Channel 1","Micron Size 2","Counts/Channel 2","Micron Size 3","Counts/Channel 3","Micron Size 4","Counts/Channel 4","Micron Size 5","Counts/Channel 5","Micron Size 6","Counts/Channel 6","Micron Size 7","Counts/Channel 7","Micron Size 8","Counts/Channel 8","Micron Size 9","Counts/Channel 9","Micron Size 10","Counts/Channel 10","Micron Size 11","Counts/Channel 11","Micron Size 12","Counts/Channel 12","Micron Size 13","Counts/Channel 13","Micron Size 14","Counts/Channel 14","Micron Size 15","Counts/Channel 15","Micron Size 16","Counts/Channel 16","Micron Size 17","Counts/Channel 17","Micron Size 18","Counts/Channel 18","Micron Size 19","Counts/Channel 19","Micron Size 20","Counts/Channel 20","Micron Size 21","Counts/Channel 21","Micron Size 22","Counts/Channel 22","Micron Size 23","Counts/Channel 23","Micron Size 24","Counts/Channel 24","Micron Size 25","Counts/Channel 25","Micron Size 26","Counts/Channel 26","Micron Size 27","Counts/Channel 27","Micron Size 28","Counts/Channel 28","Micron Size 29","Counts/Channel 29","Micron Size 30","Counts/Channel 30","Micron Size 31","Counts/Channel 31"
"04/03/08","04:00:03",111100.000,"cc",28281.424,6.00,6,0.100,101037.000,0.200,7208.000,0.300,1295.000,0.500,1179.000,1.000,381.000,5.000,0
"04/03/08","04:00:09",106730.000,"cc",28370.424,6.00,6,0.100,97024.000,0.200,6821.000,0.300,1227.000,0.500,1222.000,1.000,436.000,5.000,0
"04/03/08","04:00:15",114099.000,"cc",28304.717,6.00,6,0.100,103547.000,0.200,7515.000,0.300,1332.000,0.500,1329.000,1.000,376.000,5.000,0
"04/03/08","04:00:21",62413.000,"cc",28345.137,6.00,6,0.100,55962.000,0.200,3718.000,0.300,1133.000,0.500,1184.000,1.000,416.000,5.000,0
"04/03/08","04:00:27",69027.000,"cc",28307.270,6.00,6,0.100,62163.000,0.200,4083.000,0.300,1144.000,0.500,1281.000,1.000,356.000,5.000,0
"04/03/08","04:00:33",74726.000,"cc",28296.190,6.00,6,0.100,67299.000,0.200,4539.000,0.300,1170.000,0.500,1281.000,1.000,437.000,5.000,0
"04/03/08","04:00:39",67081.000,"cc",28331.111,6.00,6,0.100,60227.000,0.200,3993.000,0.300,1154.000,0.500,1308.000,1.000,399.000,5.000,0
"04/03/08","04:00:45",42783.000,"cc",28301.736,6.00,6,0.100,37997.000,0.200,2283.000,0.300,1009.000,0.500,1131.000,1.000,363.000,5.000,0
"04/03/08","04:00:51",97751.000,"cc",28328.336,6.00,6,0.100,88794.000,0.200,6243.000,0.300,1171.000,0.500,1140.000,1.000,403.000,5.000,0
"04/03/08","04:00:57",111666.000,"cc",28269.824,6.00,6,0.100,101551.000,0.200,7283.000,0.300,1241.000,0.500,1202.000,1.000,389.000,5.000,0
"04/03/08","04:01:03",160142.000,"cc",28312.455,6.00,6,0.100,145886.000,0.200,11055.000,0.300,1564.000,0.500,1234.000,1.000,403.000,5.000,0
"04/03/08","04:01:09",161246.000,"cc",28303.199,6.00,6,0.100,146700.000,0.200,11445.000,0.300,1456.000,0.500,1217.000,1.000,428.000,5.000,0
"04/03/08","04:01:15",196261.000,"cc",28368.877,6.00,6,0.100,177579.000,0.200,15165.000,0.300,1695.000,0.500,1359.000,1.000,463.000,5.000,0
"04/03/08","04:01:21",187592.000,"cc",28316.539,6.00,6,0.100,170905.000,0.200,13454.000,0.300,1566.000,0.500,1239.000,1.000,428.000,5.000,0
"04/03/08","04:01:27",99955.000,"cc",28354.346,6.00,6,0.100,90593.000,0.200,6375.000,0.300,1222.000,0.500,1349.000,1.000,416.000,5.000,0
"04/03/08","04:01:33",107228.000,"cc",28316.873,6.00,6,0.100,96962.000,0.200,7102.000,0.300,1353.000,0.500,1363.000,1.000,448.000,5.000,0
"04/03/08","04:01:39",103529.000,"cc",28310.977,6.00,6,0.100,93531.000,0.200,6694.000,0.300,1447.000,0.500,1405.000,1.000,452.000,5.000,0
"04/03/08","04:01:45",107028.000,"cc",28329.430,6.00,6,0.100,97086.000,0.200,6940.000,0.300,1301.000,0.500,1290.000,1.000,411.000,5.000,0
"04/03/08","04:01:51",93162.000,"cc",28254.379,6.00,6,0.100,84256.000,0.200,5899.000,0.300,1295.000,0.500,1273.000,1.000,439.000,5.000,0
"04/03/08","04:01:57",75437.000,"cc",28327.234,6.00,6,0.100,67871.000,0.200,4680.000,0.300,1188.000,0.500,1274.000,1.000,424.000,5.000,0
"04/03/08","04:02:03",79459.000,"cc",28382.713,6.00,6,0.100,71184.000,0.200,5087.000,0.300,1335.000,0.500,1423.000,1.000,430.000,5.000,0
"04/03/08","04:02:09",121846.000,"cc",28285.232,6.00,6,0.100,110867.000,0.200,7892.000,0.300,1321.000,0.500,1315.000,1.000,451.000,5.000,0
"04/03/08","04:02:15",66901.000,"cc",28217.535,6.00,6,0.100,59850.000,0.200,4017.000,0.300,1229.000,0.500,1351.000,1.000,454.000,5.000,0
"04/03/08","04:02:21",98097.000,"cc",28339.656,6.00,6,0.100,88970.000,0.200,6184.000,0.300,1265.000,0.500,1247.000,1.000,431.000,5.000,0
"04/03/08","04:02:27",64487.000,"cc",28361.893,6.00,6,0.100,57891.000,0.200,3816.000,0.300,1185.000,0.500,1196.000,1.000,398.000,5.000,1.000
"04/03/08","04:02:33",76023.000,"cc",28290.961,6.00,6,0.100,68439.000,0.200,4603.000,0.300,1258.000,0.500,1293.000,1.000,430.000,5.000,0
"04/03/08","04:02:39",61871.000,"cc",28244.014,6.00,6,0.100,55455.000,0.200,3622.000,0.300,1199.000,0.500,1201.000,1.000,394.000,5.000,0
"04/03/08","04:02:45",66824.000,"cc",28358.236,6.00,6,0.100,59927.000,0.200,3995.000,0.300,1231.000,0.500,1262.000,1.000,409.000,5.000,0
"04/03/08","04:02:51",73618.000,"cc",28325.377,6.00,6,0.100,65641.000,0.200,4625.000,0.300,1377.000,0.500,1462.000,1.000,513.000,5.000,0
"04/03/08","04:02:57",88581.000,"cc",28373.102,6.00,6,0.100,79654.000,0.200,5755.000,0.300,1335.000,0.500,1403.000,1.000,434.000,5.000,0
"04/03/08","04:03:03",104807.000,"cc",28286.928,6.00,6,0.100,94789.000,0.200,6915.000,0.300,1361.000,0.500,1264.000,1.000,478.000,5.000,0
"04/03/08","04:03:09",102491.000,"cc",28318.660,6.00,6,0.100,92744.000,0.200,6788.000,0.300,1271.000,0.500,1299.000,1.000,389.000,5.000,0
"04/03/08","04:03:15",103642.000,"cc",28293.492,6.00,6,0.100,94112.000,0.200,6625.000,0.300,1278.000,0.500,1216.000,1.000,411.000,5.000,0
"04/03/08","04:03:21",96922.000,"cc",28314.420,6.00,6,0.100,87938.000,0.200,6175.000,0.300,1181.000,0.500,1188.000,1.000,440.000,5.000,0
"04/03/08","04:03:27",124049.000,"cc",28283.008,6.00,6,0.100,112905.000,0.200,8295.000,0.300,1246.000,0.500,1222.000,1.000,381.000,5.000,0
"04/03/08","04:03:33",75418.000,"cc",28319.457,6.00,6,0.100,67930.000,0.200,4717.000,0.300,1176.000,0.500,1188.000,1.000,407.000,5.000,0
"04/03/08","04:03:39",79248.000,"cc",28342.440,6.00,6,0.100,71032.000,0.200,5097.000,0.300,1308.000,0.500,1372.000,1.000,439.000,5.000,0
"04/03/08","04:03:45",82737.000,"cc",28321.875,6.00,6,0.100,74106.000,0.200,5430.000,0.300,1362.000,0.500,1357.000,1.000,482.000,5.000,0
"04/03/08","04:03:51",77329.000,"cc",28265.922,6.00,6,0.100,69266.000,0.200,5021.000,0.300,1245.000,0.500,1327.000,1.000,470.000,5.000,0
"04/03/08","04:03:57",87036.000,"cc",28367.203,6.00,6,0.100,78080.000,0.200,5810.000,0.300,1357.000,0.500,1371.000,1.000,418.000,5.000,0
"04/03/08","04:04:03",66142.000,"cc",28312.895,6.00,6,0.100,58871.000,0.200,4179.000,0.300,1294.000,0.500,1331.000,1.000,467.000,5.000,0
"04/03/08","04:04:09",69731.000,"cc",28289.424,6.00,6,0.100,62737.000,0.200,4326.000,0.300,1128.000,0.500,1147.000,1.000,393.000,5.000,0
"04/03/08","04:04:15",65977.000,"cc",28335.104,6.00,6,0.100,59198.000,0.200,4035.000,0.300,1136.000,0.500,1192.000,1.000,416.000,5.000,0
"04/03/08","04:04:21",88891.000,"cc",28347.732,6.00,6,0.100,80243.000,0.200,5728.000,0.300,1199.000,0.500,1277.000,1.000,444.000,5.000,0
"04/03/08","04:04:27",151644.000,"cc",28386.334,6.00,6,0.100,137296.000,0.200,10894.000,0.300,1521.000,0.500,1442.000,1.000,491.000,5.000,0
"04/03/08","04:04:33",121310.000,"cc",28276.666,6.00,6,0.100,109886.000,0.200,8202.000,0.300,1354.000,0.500,1433.000,1.000,435.000,5.000,0
"04/03/08","04:04:39",130219.000,"cc",28280.984,6.00,6,0.100,118343.000,0.200,8742.000,0.300,1367.000,0.500,1327.000,1.000,440.000,5.000,0
"04/03/08","04:04:45",115751.000,"cc",28323.289,6.00,6,0.100,104720.000,0.200,8023.000,0.300,1290.000,0.500,1309.000,1.000,409.000,5.000,0
"04/03/08","04:04:51",68947.000,"cc",28332.557,6.00,6,0.100,61141.000,0.200,4420.000,0.300,1448.000,0.500,1453.000,1.000,485.000,5.000,0
"04/03/08","04:04:57",78843.000,"cc",28327.846,6.00,6,0.100,69603.000,0.200,5234.000,0.300,1656.000,0.500,1773.000,1.000,577.000,5.000,0
"04/03/08","04:05:03",129830.000,"cc",28353.275,6.00,6,0.100,116563.000,0.200,9170.000,0.300,1813.000,0.500,1733.000,1.000,551.000,5.000,0
"04/03/08","04:05:09",212897.000,"cc",28293.367,6.00,6,0.100,191186.000,0.200,17383.000,0.300,2004.000,0.500,1762.000,1.000,562.000,5.000,0
"04/03/08","04:05:15",253010.000,"cc",28301.406,6.00,6,0.100,228620.000,0.200,20320.000,0.300,1971.000,0.500,1576.000,1.000,523.000,5.000,0
"04/03/08","04:05:21",141208.000,"cc",28279.145,6.00,6,0.100,127883.000,0.200,9849.000,0.300,1474.000,0.500,1524.000,1.000,478.000,5.000,0
"04/03/08","04:05:27",127530.000,"cc",28313.416,6.00,6,0.100,115363.000,0.200,8803.000,0.300,1460.000,0.500,1437.000,1.000,467.000,5.000,0
"04/03/08","04:05:33",133053.000,"cc",28368.984,6.00,6,0.100,120522.000,0.200,9150.000,0.300,1478.000,0.500,1386.000,1.000,517.000,5.000,0
"04/03/08","04:05:39",116497.000,"cc",28342.088,6.00,6,0.100,106096.000,0.200,7578.000,0.300,1238.000,0.500,1237.000,1.000,348.000,5.000,0
"04/03/08","04:05:45",140209.000,"cc",28293.270,6.00,6,0.100,127584.000,0.200,9562.000,0.300,1387.000,0.500,1250.000,1.000,426.000,5.000,0
"04/03/08","04:05:51",179932.000,"cc",28314.412,6.00,6,0.100,163774.000,0.200,13039.000,0.300,1488.000,0.500,1238.000,1.000,393.000,5.000,0
"04/03/08","04:05:57",164273.000,"cc",28299.184,6.00,6,0.100,149370.000,0.200,11783.000,0.300,1459.000,0.500,1230.000,1.000,431.000,5.000,0
"04/03/08","04:06:03",160900.000,"cc",28325.166,6.00,6,0.100,146195.000,0.200,11362.000,0.300,1541.000,0.500,1334.000,1.000,468.000,5.000,0
"04/03/08","04:06:09",132895.000,"cc",28347.340,6.00,6,0.100,120734.000,0.200,8913.000,0.300,1507.000,0.500,1297.000,1.000,444.000,5.000,0
"04/03/08","04:06:15",134525.000,"cc",28300.297,6.00,6,0.100,121910.000,0.200,9376.000,0.300,1377.000,0.500,1412.000,1.000,450.000,5.000,0
"04/03/08","04:06:21",191612.000,"cc",28353.604,6.00,6,0.100,173933.000,0.200,14191.000,0.300,1676.000,0.500,1376.000,1.000,436.000,5.000,0
"04/03/08","04:06:27",187742.000,"cc",28256.734,6.00,6,0.100,170516.000,0.200,13849.000,0.300,1575.000,0.500,1364.000,1.000,438.000,5.000,0
"04/03/08","04:06:33",266536.000,"cc",28257.797,6.00,6,0.100,239980.000,0.200,22539.000,0.300,2065.000,0.500,1496.000,1.000,456.000,5.000,0
"04/03/08","04:06:39",159821.000,"cc",28335.576,6.00,6,0.100,144950.000,0.200,11559.000,0.300,1505.000,0.500,1387.000,1.000,420.000,5.000,0
"04/03/08","04:06:45",123387.000,"cc",28362.281,6.00,6,0.100,112122.000,0.200,8180.000,0.300,1322.000,0.500,1325.000,1.000,438.000,5.000,0
"04/03/08","04:06:51",157455.000,"cc",28341.973,6.00,6,0.100,142550.000,0.200,11717.000,0.300,1483.000,0.500,1265.000,1.000,440.000,5.000,0
"04/03/08","04:06:57",107490.000,"cc",28244.268,6.00,6,0.100,97590.000,0.200,6940.000,0.300,1271.000,0.500,1247.000,1.000,442.000,5.000,0
"04/03/08","04:07:03",70436.000,"cc",28320.299,6.00,6,0.100,63124.000,0.200,4372.000,0.300,1200.000,0.500,1315.000,1.000,425.000,5.000,0
"04/03/08","04:07:09",100804.000,"cc",28342.973,6.00,6,0.100,91142.000,0.200,6618.000,0.300,1287.000,0.500,1325.000,1.000,432.000,5.000,0
"04/03/08","04:07:15",98872.000,"cc",28332.984,6.00,6,0.100,89154.000,0.200,6440.000,0.300,1361.000,0.500,1460.000,1.000,457.000,5.000,0
"04/03/08","04:07:21",99658.000,"cc",28317.106,6.00,6,0.100,90227.000,0.200,6403.000,0.300,1277.000,0.500,1331.000,1.000,420.000,5.000,0
"04/03/08","04:07:27",84426.000,"cc",28278.389,6.00,6,0.100,75877.000,0.200,5337.000,0.300,1364.000,0.500,1411.000,1.000,437.000,5.000,0
"04/03/08","04:07:33",62340.000,"cc",28332.361,6.00,6,0.100,54819.000,0.200,3979.000,0.300,1481.000,0.500,1484.000,1.000,577.000,5.000,0
"04/03/08","04:07:39",88184.000,"cc",28284.891,6.00,6,0.100,79343.000,0.200,5701.000,0.300,1364.000,0.500,1340.000,1.000,436.000,5.000,0
"04/03/08","04:07:45",86122.000,"cc",28317.420,6.00,6,0.100,77805.000,0.200,5469.000,0.300,1203.000,0.500,1243.000,1.000,402.000,5.000,0
"04/03/08","04:07:51",118719.000,"cc",28378.383,6.00,6,0.100,107993.000,0.200,7738.000,0.300,1316.000,0.500,1254.000,1.000,418.000,5.000,0
"04/03/08","04:07:57",71592.000,"cc",28276.092,6.00,6,0.100,64177.000,0.200,4380.000,0.300,1235.000,0.500,1336.000,1.000,464.000,5.000,0
"04/03/08","04:08:03",72458.000,"cc",28367.225,6.00,6,0.100,64783.000,0.200,4491.000,0.300,1304.000,0.500,1394.000,1.000,486.000,5.000,0
"04/03/08","04:08:09",83331.000,"cc",28329.686,6.00,6,0.100,74688.000,0.200,5301.000,0.300,1389.000,0.500,1470.000,1.000,483.000,5.000,0
"04/03/08","04:08:15",69434.000,"cc",28316.209,6.00,6,0.100,61973.000,0.200,4300.000,0.300,1313.000,0.500,1396.000,1.000,452.000,5.000,0
"04/03/08","04:08:21",82478.000,"cc",28326.303,6.00,6,0.100,74301.000,0.200,5080.000,0.300,1321.000,0.500,1355.000,1.000,421.000,5.000,0
"04/03/08","04:08:27",104410.000,"cc",28290.469,6.00,6,0.100,94207.000,0.200,6860.000,0.300,1454.000,0.500,1461.000,1.000,428.000,5.000,0
"04/03/08","04:08:33",78811.000,"cc",28301.602,6.00,6,0.100,71118.000,0.200,4878.000,0.300,1203.000,0.500,1198.000,1.000,414.000,5.000,0
"04/03/08","04:08:39",79275.000,"cc",28346.254,6.00,6,0.100,71413.000,0.200,4840.000,0.300,1261.000,0.500,1316.000,1.000,445.000,5.000,0
"04/03/08","04:08:45",83805.000,"cc",28281.729,6.00,6,0.100,75027.000,0.200,5363.000,0.300,1479.000,0.500,1464.000,1.000,472.000,5.000,0
"04/03/08","04:08:51",55710.000,"cc",28323.445,6.00,6,0.100,49735.000,0.200,3170.000,0.300,1175.000,0.500,1185.000,1.000,445.000,5.000,0
"04/03/08","04:08:57",55810.000,"cc",28281.578,6.00,6,0.100,49731.000,0.200,3266.000,0.300,1140.000,0.500,1232.000,1.000,441.000,5.000,0
"04/03/08","04:09:03",102276.000,"cc",28349.385,6.00,6,0.100,92447.000,0.200,6729.000,0.300,1369.000,0.500,1298.000,1.000,433.000,5.000,0
"04/03/08","04:09:09",73067.000,"cc",28294.430,6.00,6,0.100,65846.000,0.200,4356.000,0.300,1204.000,0.500,1247.000,1.000,414.000,5.000,0
"04/03/08","04:09:15",76980.000,"cc",28334.990,6.00,6,0.100,69386.000,0.200,4726.000,0.300,1194.000,0.500,1222.000,1.000,452.000,5.000,0
"04/03/08","04:09:21",203442.000,"cc",28331.543,6.00,6,0.100,184804.000,0.200,15026.000,0.300,1779.000,0.500,1392.000,1.000,441.000,5.000,0
"04/03/08","04:09:27",183438.000,"cc",28260.223,6.00,6,0.100,166626.000,0.200,13146.000,0.300,1707.000,0.500,1496.000,1.000,463.000,5.000,0
"04/03/08","04:09:33",84131.000,"cc",28331.119,6.00,6,0.100,75273.000,0.200,5335.000,0.300,1423.000,0.500,1613.000,1.000,487.000,5.000,0
"04/03/08","04:09:39",54926.000,"cc",28283.018,6.00,6,0.100,48640.000,0.200,3301.000,0.300,1192.000,0.500,1380.000,1.000,413.000,5.000,0
"04/03/08","04:09:45",60331.000,"cc",28329.158,6.00,6,0.100,53682.000,0.200,3596.000,0.300,1308.000,0.500,1299.000,1.000,446.000,5.000,0
"04/03/08","04:09:51",104323.000,"cc",28294.639,6.00,6,0.100,94350.000,0.200,6904.000,0.300,1311.000,0.500,1327.000,1.000,431.000,5.000,0
"04/03/08","04:09:57",89762.000,"cc",28346.283,6.00,6,0.100,80648.000,0.200,5834.000,0.300,1432.000,0.500,1384.000,1.000,464.000,5.000,0
"04/03/08","04:10:03",98994.000,"cc",28351.549,6.00,6,0.100,89538.000,0.200,6415.000,0.300,1289.000,0.500,1311.000,1.000,441.000,5.000,0
"04/03/08","04:10:09",64228.000,"cc",28302.231,6.00,6,0.100,57260.000,0.200,3914.000,0.300,1267.000,0.500,1341.000,1.000,446.000,5.000,0
"04/03/08","04:10:15",69009.000,"cc",28344.033,6.00,6,0.100,61703.000,0.200,4271.000,0.300,1287.000,0.500,1266.000,1.000,482.000,5.000,0
"04/03/08","04:10:21",110517.000,"cc",28351.029,6.00,6,0.100,99577.000,0.200,7724.000,0.300,1404.000,0.500,1390.000,1.000,422.000,5.000,0
"04/03/08","04:10:27",84238.000,"cc",28331.938,6.00,6,0.100,75314.000,0.200,5658.000,0.300,1384.000,0.500,1388.000,1.000,494.000,5.000,0
"04/03/08","04:10:33",80704.000,"cc",28220.162,6.00,6,0.100,71987.000,0.200,5314.000,0.300,1441.000,0.500,1486.000,1.000,476.000,5.000,0
"04/03/08","04:10:39",64724.000,"cc",28275.225,6.00,6,0.100,57272.000,0.200,4152.000,0.300,1336.000,0.500,1452.000,1.000,512.000,5.000,0
"04/03/08","04:10:45",90856.000,"cc",28342.154,6.00,6,0.100,81729.000,0.200,5923.000,0.300,1393.000,0.500,1385.000,1.000,426.000,5.000,0
"04/03/08","04:10:51",86858.000,"cc",28288.451,6.00,6,0.100,78332.000,0.200,5491.000,0.300,1289.000,0.500,1320.000,1.000,426.000,5.000,0
"04/03/08","04:10:57",73034.000,"cc",28357.930,6.00,6,0.100,65475.000,0.200,4484.000,0.300,1272.000,0.500,1336.000,1.000,467.000,5.000,0
"04/03/08","04:11:03",78496.000,"cc",28305.127,6.00,6,0.100,70579.000,0.200,4909.000,0.300,1268.000,0.500,1328.000,1.000,412.000,5.000,0
"04/03/08","04:11:09",62176.000,"cc",28325.213,6.00,6,0.100,55148.000,0.200,3794.000,0.300,1355.000,0.500,1404.000,1.000,475.000,5.000,0
"04/03/08","04:11:15",63774.000,"cc",28446.785,6.00,6,0.100,56811.000,0.200,3868.000,0.300,1323.000,0.500,1336.000,1.000,436.000,5.000,0
"04/03/08","04:11:21",73636.000,"cc",28248.727,6.00,6,0.100,65653.000,0.200,4745.000,0.300,1359.000,0.500,1407.000,1.000,472.000,5.000,0
"04/03/08","04:11:27",72789.000,"cc",28281.678,6.00,6,0.100,65135.000,0.200,4503.000,0.300,1350.000,0.500,1374.000,1.000,427.000,5.000,0
"04/03/08","04:11:33",100441.000,"cc",28295.260,6.00,6,0.100,90587.000,0.200,6653.000,0.300,1428.000,0.500,1351.000,1.000,422.000,5.000,0
"04/03/08","04:11:39",107585.000,"cc",28358.197,6.00,6,0.100,97363.000,0.200,7032.000,0.300,1367.000,0.500,1369.000,1.000,454.000,5.000,0
"04/03/08","04:11:45",98841.000,"cc",28297.611,6.00,6,0.100,89411.000,0.200,6499.000,0.300,1268.000,0.500,1260.000,1.000,403.000,5.000,0
"04/03/08","04:11:51",119912.000,"cc",28338.412,6.00,6,0.100,108823.000,0.200,8017.000,0.300,1340.000,0.500,1331.000,1.000,401.000,5.000,0
"04/03/08","04:11:57",178578.000,"cc",28256.717,6.00,6,0.100,162575.000,0.200,12761.000,0.300,1491.000,0.500,1316.000,1.000,435.000,5.000,0
"04/03/08","04:12:03",114045.000,"cc",28243.412,6.00,6,0.100,103157.000,0.200,7725.000,0.300,1345.000,0.500,1367.000,1.000,451.000,5.000,0
"04/03/08","04:12:09",85562.000,"cc",28335.973,6.00,6,0.100,77008.000,0.200,5512.000,0.300,1258.000,0.500,1343.000,1.000,441.000,5.000,0
"04/03/08","04:12:15",95426.000,"cc",28313.065,6.00,6,0.100,85981.000,0.200,6322.000,0.300,1300.000,0.500,1382.000,1.000,441.000,5.000,0
"04/03/08","04:12:21",110287.000,"cc",28331.006,6.00,6,0.100,100183.000,0.200,7329.000,0.300,1210.000,0.500,1187.000,1.000,378.000,5.000,0
"04/03/08","04:12:27",84506.000,"cc",28343.719,6.00,6,0.100,76242.000,0.200,5384.000,0.300,1191.000,0.500,1296.000,1.000,393.000,5.000,0
"04/03/08","04:12:33",100338.000,"cc",28286.557,6.00,6,0.100,90616.000,0.200,6597.000,0.300,1323.000,0.500,1377.000,1.000,425.000,5.000,0
"04/03/08","04:12:39",116768.000,"cc",28327.910,6.00,6,0.100,105669.000,0.200,7893.000,0.300,1363.000,0.500,1366.000,1.000,477.000,5.000,0
"04/03/08","04:12:45",70926.000,"cc",28289.910,6.00,6,0.100,62978.000,0.200,4489.000,0.300,1448.000,0.500,1490.000,1.000,521.000,5.000,0
"04/03/08","04:12:51",117978.000,"cc",28298.660,6.00,6,0.100,106456.000,0.200,7998.000,0.300,1509.000,0.500,1525.000,1.000,490.000,5.000,0
"04/03/08","04:12:57",101604.000,"cc",28366.453,6.00,6,0.100,92201.000,0.200,6526.000,0.300,1199.000,0.500,1248.000,1.000,430.000,5.000,0
"04/03/08","04:13:03",140102.000,"cc",28320.379,6.00,6,0.100,127157.000,0.200,9804.000,0.300,1409.000,0.500,1306.000,1.000,426.000,5.000,0
"04/03/08","04:13:09",88398.000,"cc",28272.074,6.00,6,0.100,79874.000,0.200,5663.000,0.300,1268.000,0.500,1205.000,1.000,388.000,5.000,0
"04/03/08","04:13:15",79413.000,"cc",28304.330,6.00,6,0.100,71670.000,0.200,4870.000,0.300,1213.000,0.500,1230.000,1.000,430.000,5.000,0
"04/03/08","04:13:21",119062.000,"cc",28332.469,6.00,6,0.100,107559.000,0.200,8166.000,0.300,1472.000,0.500,1416.000,1.000,449.000,5.000,0
"04/03/08","04:13:27",110821.000,"cc",28287.352,6.00,6,0.100,100053.000,0.200,7430.000,0.300,1456.000,0.500,1452.000,1.000,430.000,5.000,0
"04/03/08","04:13:33",90631.000,"cc",28343.512,6.00,6,0.100,81937.000,0.200,5776.000,0.300,1259.000,0.500,1257.000,1.000,402.000,5.000,0
"04/03/08","04:13:39",138128.000,"cc",28332.320,6.00,6,0.100,124872.000,0.200,9861.000,0.300,1577.000,0.500,1386.000,1.000,432.000,5.000,0
"04/03/08","04:13:45",215339.000,"cc",28328.551,6.00,6,0.100,194860.000,0.200,16688.000,0.300,1829.000,0.500,1484.000,1.000,478.000,5.000,0
"04/03/08","04:13:51",67216.000,"cc",28316.074,6.00,6,0.100,60255.000,0.200,4068.000,0.300,1211.000,0.500,1285.000,1.000,397.000,5.000,0
"04/03/08","04:13:57",66810.000,"cc",28319.184,6.00,6,0.100,59808.000,0.200,4071.000,0.300,1220.000,0.500,1308.000,1.000,403.000,5.000,0
"04/03/08","04:14:03",73875.000,"cc",28327.438,6.00,6,0.100,66121.000,0.200,4601.000,0.300,1357.000,0.500,1338.000,1.000,458.000,5.000,0
"04/03/08","04:14:09",85931.000,"cc",28328.018,6.00,6,0.100,77123.000,0.200,5698.000,0.300,1355.000,0.500,1309.000,1.000,446.000,5.000,0
"04/03/08","04:14:15",69418.000,"cc",28302.914,6.00,6,0.100,61934.000,0.200,4368.000,0.300,1309.000,0.500,1380.000,1.000,427.000,5.000,0
"04/03/08","04:14:21",75814.000,"cc",28312.088,6.00,6,0.100,68024.000,0.200,4889.000,0.300,1182.000,0.500,1293.000,1.000,426.000,5.000,0
"04/03/08","04:14:27",73364.000,"cc",28317.738,6.00,6,0.100,65961.000,0.200,4608.000,0.300,1176.000,0.500,1222.000,1.000,397.000,5.000,0
"04/03/08","04:14:33",61305.000,"cc",28316.148,6.00,6,0.100,54777.000,0.200,3779.000,0.300,1143.000,0.500,1212.000,1.000,394.000,5.000,0
"04/03/08","04:14:39",78060.000,"cc",28270.420,6.00,6,0.100,70235.000,0.200,5005.000,0.300,1182.000,0.500,1224.000,1.000,414.000,5.000,0
"04/03/08","04:14:45",89589.000,"cc",28306.014,6.00,6,0.100,80824.000,0.200,5745.000,0.300,1265.000,0.500,1314.000,1.000,441.000,5.000,0
"04/03/08","04:14:51",84922.000,"cc",28315.436,6.00,6,0.100,76466.000,0.200,5400.000,0.300,1301.000,0.500,1291.000,1.000,464.000,5.000,0
"04/03/08","04:14:57",64469.000,"cc",28384.082,6.00,6,0.100,57795.000,0.200,3805.000,0.300,1190.000,0.500,1294.000,1.000,385.000,5.000,0
"04/03/08","04:15:03",79209.000,"cc",28347.191,6.00,6,0.100,70981.000,0.200,5085.000,0.300,1292.000,0.500,1362.000,1.000,489.000,5.000,0
"04/03/08","04:15:09",125004.000,"cc",28232.684,6.00,6,0.100,113157.000,0.200,8688.000,0.300,1391.000,0.500,1312.000,1.000,456.000,5.000,0
"04/03/08","04:15:15",66835.000,"cc",28312.022,6.00,6,0.100,59902.000,0.200,4076.000,0.300,1206.000,0.500,1218.000,1.000,433.000,5.000,0
"04/03/08","04:15:21",181730.000,"cc",28339.740,6.00,6,0.100,164399.000,0.200,13803.000,0.300,1605.000,0.500,1424.000,1.000,499.000,5.000,0
"04/03/08","04:15:27",104818.000,"cc",28289.264,6.00,6,0.100,94892.000,0.200,6846.000,0.300,1282.000,0.500,1373.000,1.000,425.000,5.000,0
"04/03/08","04:15:33",121547.000,"cc",28311.381,6.00,6,0.100,110639.000,0.200,7976.000,0.300,1273.000,0.500,1242.000,1.000,417.000,5.000,0
"04/03/08","04:15:39",126298.000,"cc",28338.516,6.00,6,0.100,114912.000,0.200,8391.000,0.300,1312.000,0.500,1247.000,1.000,436.000,5.000,0
"04/03/08","04:15:45",280155.000,"cc",28333.428,6.00,6,0.100,253730.000,0.200,22593.000,0.300,1942.000,0.500,1401.000,1.000,489.000,5.000,0
"04/03/08","04:15:51",256516.000,"cc",28326.268,6.00,6,0.100,232566.000,0.200,20250.000,0.300,1822.000,0.500,1389.000,1.000,489.000,5.000,0
"04/03/08","04:15:57",185152.000,"cc",28361.441,6.00,6,0.100,101649.000,0.200,76707.000,0.300,4522.000,0.500,1727.000,1.000,547.000,5.000,0
"04/03/08","04:16:03",183538.000,"cc",28328.373,6.00,6,0.100,109227.000,0.200,68414.000,0.300,3912.000,0.500,1492.000,1.000,493.000,5.000,0
"04/03/08","04:16:09",286914.000,"cc",28266.279,6.00,6,0.100,253933.000,0.200,28706.000,0.300,2357.000,0.500,1435.000,1.000,483.000,5.000,0
"04/03/08","04:16:15",242592.000,"cc",28318.984,6.00,6,0.100,186083.000,0.200,51341.000,0.300,3153.000,0.500,1514.000,1.000,501.000,5.000,0